VK4TW-13 Weather Reports


time (UTC)temp
C
wind
direction
speed
KPH
gust
KPH
rain 1hr
cm
rain 24hr
cm
rain mn
cm
humidity
%
barometer
mb
20260510000337 23 73 3.2 12.9 0.00 0.00 0.00 100 1023.4
20260509235941 23 79 11.3 11.3 0.00 0.00 0.00 100 1023.3
20260509235323 22 98 1.6 14.5 0.00 0.00 0.00 100 1023.3
20260509235023 22 74 12.9 12.9 0.00 0.00 0.00 100 1023.2
20260509234244 22 95 3.2 9.7 0.00 0.00 0.00 100 1022.9
20260509233244 22 99 3.2 6.4 0.00 0.00 0.00 100 1023.1
20260509232245 21 94 3.2 14.5 0.00 0.00 0.00 100 1023.1
20260509231856 21 78 11.3 11.3 0.00 0.00 0.00 100 1023.0
20260509231429 21 104 1.6 12.9 0.00 0.00 0.00 100 1022.8
20260509231130 21 71 11.3 11.3 0.00 0.00 0.00 100 1022.7
20260509230715 21 75 1.6 8.0 0.00 0.00 0.00 100 1022.6
20260509225716 21 87 3.2 11.3 0.00 0.00 0.00 100 1022.7
20260509225317 21 70 11.3 11.3 0.00 0.00 0.00 100 1022.7
20260509224922 21 108 3.2 9.7 0.00 0.00 0.00 100 1022.7
20260509223921 20 112 1.6 8.0 0.00 0.00 0.00 100 1022.7
20260509223314 20 74 9.7 9.7 0.00 0.00 0.00 100 1022.9
20260509222931 20 109 1.6 6.4 0.00 0.00 0.00 100 1023.0
20260509221932 20 112 1.6 6.4 0.00 0.00 0.00 100 1022.7
20260509220932 20 87 3.2 9.7 0.00 0.00 0.00 100 1022.4
20260509220630 19 70 11.3 11.3 0.00 0.00 0.00 100 1022.3
20260509220122 19 97 3.2 16.1 0.00 0.00 0.00 100 1022.2
20260509215644 19 96 11.3 16.1 0.00 0.00 0.00 100 1022.3
20260509215334 19 105 3.2 12.9 0.00 0.00 0.00 100 1022.3
20260509214534 19 77 11.3 11.3 0.00 0.00 0.00 100 1022.5
20260509214002 19 98 3.2 12.9 0.00 0.00 0.00 100 1022.7
20260509213555 18 67 11.3 11.3 0.00 0.00 0.00 100 1022.6
20260509212643 18 91 1.6 6.4 0.00 0.00 0.00 100 1022.5
20260509211644 18 93 4.8 8.0 0.00 0.00 0.00 100 1022.3
20260509210641 18 108 3.2 6.4 0.00 0.00 0.00 100 1022.2
20260509205641 18 76 4.8 8.0 0.00 0.00 0.00 100 1022.3
20260509204641 18 81 1.6 6.4 0.00 0.00 0.00 100 1021.9
20260509203639 18 92 4.8 11.3 0.00 0.00 0.00 100 1021.6
20260509202638 18 75 4.8 8.0 0.00 0.00 0.00 100 1021.5
20260509201638 18 90 3.2 6.4 0.00 0.00 0.00 100 1021.6
20260509200634 18 94 1.6 9.7 0.00 0.00 0.00 100 1021.3
20260509195636 18 93 8.0 8.0 0.00 0.00 0.00 100 1021.2
20260509194635 18 73 6.4 6.4 0.00 0.00 0.00 100 1021.3
20260509193633 18 110 0.0 6.4 0.00 0.00 0.00 100 1021.2
20260509192632 18 87 6.4 6.4 0.00 0.00 0.00 100 1021.1
20260509191633 18 88 3.2 6.4 0.00 0.00 0.00 100 1020.8
20260509190630 18 93 4.8 6.4 0.00 0.00 0.00 100 1020.6
20260509185630 18 108 1.6 4.8 0.00 0.00 0.00 100 1020.6
20260509184630 18 108 3.2 3.2 0.00 0.00 0.00 100 1020.6
20260509183627 18 86 4.8 6.4 0.00 0.00 0.00 100 1020.4
20260509182627 18 98 3.2 4.8 0.00 0.00 0.00 100 1020.3
20260509181625 18 83 1.6 6.4 0.00 0.00 0.00 100 1020.3
20260509180625 18 87 1.6 6.4 0.00 0.00 0.00 100 1020.3
20260509175624 19 87 1.6 6.4 0.00 0.00 0.00 100 1020.0
20260509174624 19 95 4.8 6.4 0.00 0.00 0.00 100 1020.1
20260509173622 19 92 1.6 8.0 0.00 0.00 0.00 100 1020.0
20260509172621 19 77 6.4 9.7 0.00 0.00 0.00 100 1020.1
20260509171621 19 87 3.2 4.8 0.00 0.00 0.00 100 1020.1
20260509170619 19 74 3.2 9.7 0.00 0.00 0.00 100 1020.1
20260509165618 18 91 4.8 8.0 0.00 0.00 0.00 100 1020.2
20260509164619 18 100 3.2 8.0 0.00 0.00 0.00 100 1020.2
20260509163617 18 99 6.4 9.7 0.00 0.00 0.00 100 1020.3
20260509162616 18 67 4.8 6.4 0.00 0.00 0.00 100 1020.3
20260509161617 18 81 4.8 9.7 0.00 0.00 0.00 100 1020.4
20260509160614 18 95 4.8 8.0 0.00 0.00 0.00 100 1020.4
20260509155613 18 103 3.2 12.9 0.00 0.00 0.00 100 1020.4
20260509154940 18 92 3.2 16.1 0.00 0.00 0.00 100 1020.4
20260509154630 18 87 11.3 16.1 0.00 0.00 0.00 100 1020.5
20260509154330 18 106 3.2 11.3 0.00 0.00 0.00 100 1020.6
20260509153950 18 78 11.3 11.3 0.00 0.00 0.00 100 1020.6
20260509153619 18 85 3.2 6.4 0.00 0.00 0.00 100 1020.6
20260509152619 18 86 6.4 9.7 0.00 0.00 0.00 100 1020.7
20260509151617 18 98 3.2 9.7 0.00 0.00 0.00 100 1020.8
20260509145750 18 95 3.2 14.5 0.00 0.00 0.00 100 1020.8
20260509145412 18 75 11.3 11.3 0.00 0.00 0.00 100 1020.9
20260509144723 18 88 3.2 11.3 0.00 0.00 0.00 100 1021.1
20260509144419 18 75 12.9 12.9 0.00 0.00 0.00 100 1021.2
20260509143751 18 90 3.2 9.7 0.00 0.00 0.00 100 1021.2
20260509142751 18 82 4.8 9.7 0.00 0.00 0.00 100 1021.3
20260509140748 18 74 4.8 6.4 0.00 0.00 0.00 100 1021.5
20260509135748 18 82 0.0 4.8 0.00 0.00 0.00 100 1021.5
20260509134746 18 99 1.6 4.8 0.00 0.00 0.00 100 1021.5
20260509133745 18 95 1.6 6.4 0.00 0.00 0.00 100 1021.5
20260509132745 18 112 3.2 4.8 0.00 0.00 0.00 100 1021.6
20260509130742 19 102 1.6 6.4 0.00 0.00 0.00 100 1021.8
20260509125742 19 112 1.6 4.8 0.00 0.00 0.00 100 1021.8
20260509124740 19 94 4.8 4.8 0.00 0.00 0.00 100 1021.7
20260509123740 19 110 3.2 8.0 0.00 0.00 0.00 100 1021.7
20260509122740 19 109 1.6 6.4 0.00 0.00 0.00 100 1021.7
20260509121738 19 98 3.2 6.4 0.00 0.00 0.00 100 1021.7
20260509120737 19 98 1.6 6.4 0.00 0.00 0.00 100 1021.7
20260509115737 19 112 1.6 4.8 0.00 0.00 0.00 100 1021.9
20260509113734 19 86 1.6 4.8 0.00 0.00 0.00 100 1021.9
20260509112734 19 75 3.2 4.8 0.00 0.00 0.00 100 1021.9
20260509111733 20 102 3.2 4.8 0.00 0.00 0.00 100 1021.9
20260509110731 20 112 0.0 4.8 0.00 0.00 0.00 100 1021.9
20260509105731 20 107 1.6 6.4 0.00 0.00 0.00 100 1021.9
20260509104730 20 112 1.6 6.4 0.00 0.00 0.00 100 1021.7
20260509103728 20 112 1.6 4.8 0.00 0.00 0.00 100 1021.7
20260509102729 20 112 1.6 4.8 0.00 0.00 0.00 100 1021.7
20260509101726 20 112 1.6 4.8 0.00 0.00 0.00 100 1021.5
20260509095726 20 112 3.2 6.4 0.00 0.00 0.00 100 1021.3
20260509094724 20 112 1.6 3.2 0.00 0.00 0.00 100 1021.1
20260509093723 20 85 4.8 6.4 0.00 0.00 0.00 100 1021.1
20260509091721 21 108 3.2 8.0 0.00 0.00 0.00 100 1020.9
20260509090720 21 112 1.6 8.0 0.00 0.00 0.00 100 1020.8
20260509085720 21 112 1.6 8.0 0.00 0.00 0.00 100 1020.6
20260509084354 21 78 8.0 8.0 0.00 0.00 0.00 100 1020.5
20260509083417 21 111 8.0 8.0 0.00 0.00 0.00 100 1020.3
20260509082637 21 87 0.0 4.8 0.00 0.00 0.00 100 1020.3
20260509081635 21 109 3.2 9.7 0.00 0.00 0.00 100 1020.1
20260509080308 21 106 11.3 11.3 0.00 0.00 0.00 100 1019.9
20260509075333 21 111 3.2 9.7 0.00 0.00 0.00 100 1019.6
20260509074332 22 108 3.2 9.7 0.00 0.00 0.00 100 1019.6
20260509073332 22 108 3.2 6.4 0.00 0.00 0.00 100 1019.5
20260509072331 22 112 1.6 6.4 0.00 0.00 0.00 100 1019.3
20260509071330 22 85 0.0 11.3 0.00 0.00 0.00 100 1019.2
20260509070744 22 106 8.0 9.7 0.00 0.00 0.00 100 1019.1
20260509070435 22 112 0.0 9.7 0.00 0.00 0.00 100 1019.1
20260509065434 22 98 8.0 8.0 0.00 0.00 0.00 100 1019.1
20260509064307 22 111 11.3 14.5 0.00 0.00 0.00 100 1018.8
20260509063959 22 100 3.2 14.5 0.00 0.00 0.00 100 1018.7
20260509063658 22 112 12.9 12.9 0.00 0.00 0.00 100 1018.8
20260509062758 23 105 4.8 12.9 0.00 0.00 0.00 100 1018.7
20260509062421 23 111 12.9 16.1 0.00 0.00 0.00 100 1018.6
20260509062119 23 99 4.8 17.7 0.00 0.00 0.00 100 1018.6
20260509061820 23 111 19.3 19.3 0.00 0.00 0.00 100 1018.5
20260509061115 23 108 9.7 16.1 0.00 0.00 0.00 100 1018.5
20260509060752 23 112 0.0 12.9 0.00 0.00 0.00 100 1018.4
20260509060433 23 112 9.7 11.3 0.00 0.00 0.00 100 1018.4
20260509055939 23 101 0.0 16.1 0.00 0.00 0.00 100 1018.3
20260509055517 23 110 8.0 8.0 0.00 0.00 0.00 100 1018.3
20260509055000 23 112 0.0 9.7 0.00 0.00 0.00 100 1018.4
20260509054553 23 84 8.0 8.0 0.00 0.00 0.00 100 1018.2
20260509054204 23 105 0.0 9.7 0.00 0.00 0.00 100 1018.3
20260509053205 23 106 3.2 9.7 0.00 0.00 0.00 100 1018.2
20260509052202 24 104 4.8 11.3 0.00 0.00 0.00 100 1018.1
20260509051901 24 112 14.5 14.5 0.00 0.00 0.00 100 1018.1
20260509051601 24 108 3.2 9.7 0.00 0.00 0.00 100 1018.1
20260509051300 24 109 11.3 11.3 0.00 0.00 0.00 100 1018.0
20260509050513 25 112 3.2 12.9 0.00 0.00 0.00 100 1018.0
20260509050209 25 108 11.3 11.3 0.00 0.00 0.00 100 1017.8
20260509045224 25 104 3.2 11.3 0.00 0.00 0.00 100 1017.9
20260509044221 25 112 4.8 19.3 0.00 0.00 0.00 100 1018.0
20260509043848 25 108 12.9 12.9 0.00 0.00 0.00 100 1017.9
20260509043114 25 109 4.8 14.5 0.00 0.00 0.00 100 1018.1
20260509042746 25 111 12.9 14.5 0.00 0.00 0.00 100 1017.9
20260509042349 25 102 4.8 6.4 0.00 0.00 0.00 100 1017.9
20260509041346 26 112 1.6 9.7 0.00 0.00 0.00 100 1018.0
20260509040347 26 107 8.0 8.0 0.00 0.00 0.00 100 1017.9
20260509040016 26 112 0.0 8.0 0.00 0.00 0.00 100 1018.0
20260509035014 26 112 1.6 9.7 0.00 0.00 0.00 100 1017.9
20260509034015 26 104 8.0 8.0 0.00 0.00 0.00 96 1018.1
20260509033050 26 112 0.0 8.0 0.00 0.00 0.00 93 1018.1
20260509032748 26 108 9.7 9.7 0.00 0.00 0.00 93 1018.1
20260509032034 26 108 9.7 9.7 0.00 0.00 0.00 93 1018.2
20260509031528 26 112 1.6 8.0 0.00 0.00 0.00 92 1018.2
20260509030528 26 102 3.2 11.3 0.00 0.00 0.00 89 1018.3
20260509030209 26 106 11.3 11.3 0.00 0.00 0.00 90 1018.4
20260509025456 26 112 3.2 6.4 0.00 0.00 0.00 90 1018.6
20260509024457 26 100 3.2 9.7 0.00 0.00 0.00 91 1018.6
20260509023456 26 95 4.8 9.7 0.00 0.00 0.00 88 1018.7
20260509022455 26 96 8.0 8.0 0.00 0.00 0.00 90 1018.7
20260509022111 26 112 0.0 8.0 0.00 0.00 0.00 90 1018.8
20260509021709 26 101 8.0 8.0 0.00 0.00 0.00 89 1018.9
20260509021307 26 108 0.0 8.0 0.00 0.00 0.00 89 1019.0
20260509020542 26 106 8.0 8.0 0.00 0.00 0.00 91 1019.0
20260509015915 26 112 0.0 0.0 0.00 0.00 0.00 91 1019.3
20260509014915 26 103 0.0 0.0 0.00 0.00 0.00 91 1019.3
20260509013914 25 111 0.0 0.0 0.00 0.00 0.00 90 1019.4
20260509012913 25 112 0.0 0.0 0.00 0.00 0.00 86 1019.5
20260509011912 25 112 0.0 0.0 0.00 0.00 0.00 83 1019.6
20260509005910 25 112 0.0 0.0 0.00 0.00 0.00 76 1020.0
20260509004908 25 80 0.0 0.0 0.00 0.00 0.00 70 1020.1
20260509003908 24 97 0.0 0.0 0.00 0.00 0.00 72 1020.4
20260509002907 24 112 0.0 0.0 0.00 0.00 0.00 73 1020.4
20260509001906 23 112 0.0 0.0 0.00 0.00 0.00 75 1020.3
20260509000905 23 81 0.0 0.0 0.00 0.00 0.00 73 1020.6